This is the latest recevied weather packets stored in our database for station/object WL7CLI. If no packets are shown the sender has not sent any weather packets the latest 10 day(s).
| Time | Temp. | Humidity | Pressure | Rain* | Wind** | Luminosity | Snow |
|---|---|---|---|---|---|---|---|
| 1778091499 | 12.22° C | 37% | 1018.2 hPa | 0 mm | - | - | - |
| 1778091374 | 12.22° C | 38% | 1018.3 hPa | 0 mm | - | - | - |
| 1778090304 | 12.22° C | 39% | 1017.8 hPa | 0 mm | - | - | - |
| 1778090300 | 12.22° C | 39% | 1018.3 hPa | 0 mm | - | - | - |
| 1778090176 | 12.22° C | 40% | 1018.4 hPa | 0 mm | - | - | - |
| 1778089099 | 11.67° C | 39% | 1018.5 hPa | 0 mm | - | - | - |
| 1778088975 | 11.67° C | 40% | 1018.5 hPa | 0 mm | - | - | - |
| 1778088505 | 11.67° C | 40% | 1018.1 hPa | 0 mm | - | - | - |
| 1778087900 | 11.67° C | 39% | 1018.7 hPa | 0 mm | - | - | - |
| 1778087775 | 11.67° C | 38% | 1018.7 hPa | 0 mm | - | - | - |
| 1778086704 | 11.11° C | 40% | 1018.2 hPa | 0 mm | - | - | - |
| 1778086699 | 11.11° C | 40% | 1018.8 hPa | 0 mm | - | - | - |
| 1778086574 | 11.11° C | 41% | 1018.7 hPa | 0 mm | - | - | - |
| 1778085500 | 11.11° C | 45% | 1018.7 hPa | 0 mm | - | - | - |
| 1778085375 | 11.11° C | 40% | 1018.7 hPa | 0 mm | - | - | - |
| 1778084905 | 11.11° C | 39% | 1018.2 hPa | 0 mm | - | - | - |
| 1778084299 | 11.11° C | 42% | 1018.7 hPa | 0 mm | - | - | - |
| 1778084175 | 11.11° C | 40% | 1018.6 hPa | 0 mm | - | - | - |
| 1778083105 | 11.11° C | 43% | 1017.9 hPa | 0 mm | - | - | - |
| 1778083099 | 11.11° C | 43% | 1018.4 hPa | 0 mm | - | - | - |
| 1778082975 | 11.11° C | 41% | 1018.5 hPa | 0 mm | - | - | - |
| 1778081898 | 10.56° C | 42% | 1018.6 hPa | 0 mm | - | - | - |
| 1778081773 | 10.56° C | 44% | 1018.5 hPa | 0 mm | - | - | - |
| 1778081305 | 10° C | 45% | 1018.1 hPa | 0 mm | - | - | - |
| 1778080700 | 9.44° C | 46% | 1018.5 hPa | 0 mm | - | - | - |
* Rain latest hour (hover to see other rain measurements)
** Current wind speed in m/s (hover to see current wind gust speed)